"2010-01-12 00:00:00",1584274,5.988,183.1,6.211,1.256,7.446,102.2034,4.923,6.074,32.46,0,109.9,13.43,5.69,145.1
"2010-01-12 00:00:30",1584275,5.814,183.2,6.35,1.239,7.692,102.204,4.924,6.095,32.05,0,109.9,13.43,5.69,145.2
"2010-01-12 00:01:00",1584276,6.685,187,5.877,1.188,9.4,102.2031,4.922,6.199,32.16,0,109.9,13.43,5.69,149.0
"2010-01-12 00:01:30",1584277,6.808,189,5.153,1.122,9.77,102.206,4.929,6.146,32.23,0,109.9,13.43,5.70,151.0
"2010-01-12 00:02:00",1584278,6.792,187.6,6.581,1.088,9.03,102.2055,4.928,6.109,32.09,0,109.9,13.43,5.70,149.6
"2010-01-12 00:02:30",1584279,6.109,183.9,7.957,1.193,7.479,102.2086,4.936,6.022,31.97,0,109.9,13.43,5.71,145.9
"2010-01-12 00:03:00",1584280,5.76,183.5,6.013,1.138,7.038,102.2067,4.931,6.045,32.02,0,109.9,13.43,5.70,145.5
"2010-01-12 00:03:30",1584281,6.004,186.3,7.174,1.211,8.13,102.2082,4.935,6.139,32.01,0,109.9,13.44,5.70,148.3
"2010-01-12 00:04:00",1584282,6.529,190.8,6.063,1.05,9.54,102.21,4.939,6.087,31.81,0,109.9,13.44,5.71,152.8
"2010-01-12 00:04:30",1584283,5.79,187.3,6.821,1.291,8.28,102.2123,4.945,6.102,31.61,0,109.9,13.44,5.71,149.3
"2010-01-12 00:05:00",1584284,6.345,189.4,6.737,1.259,8.72,102.2147,4.951,6.021,31.54,0,109.9,13.44,5.72,151.4
"2010-01-12 00:05:30",1584285,6.089,189.4,6.659,1.279,8.49,102.2131,4.947,6.15,31.76,0,109.9,13.44,5.72,151.4
"2010-01-12 00:06:00",1584286,5.593,187.8,6.367,1.304,7.72,102.2074,4.933,5.981,31.61,0,109.9,13.44,5.70,149.8
"2010-01-12 00:06:30",1584287,6.219,189.6,6.81,1.19,8.69,102.2015,4.918,6.044,31.7,0,109.9,13.44,5.69,151.6
"2010-01-12 00:07:00",1584288,6.191,189.5,6.428,1.261,8.82,102.2044,4.925,6.142,31.81,0,109.9,13.44,5.69,151.5
"2010-01-12 00:07:30",1584289,6.248,190,6.647,1.174,8.56,102.2041,4.924,6.079,31.8,0,109.9,13.44,5.69,152.0
"2010-01-12 00:08:00",1584290,6.073,191.9,6.496,1.182,9.4,102.2041,4.924,6.101,31.83,0,109.9,13.44,5.69,153.9
"2010-01-12 00:08:30",1584291,6.194,192.7,5.934,1.112,9.78,102.2041,4.924,6.139,31.8,0,109.9,13.44,5.69,154.7
"2010-01-12 00:09:00",1584292,5.195,187.4,6.574,1.207,8.2,102.2041,4.924,6.035,31.57,0,109.9,13.44,5.69,149.4
"2010-01-12 00:09:30",1584293,4.776,185.8,5.276,1.112,6.981,102.2041,4.924,5.995,31.47,0,109.9,13.44,5.69,147.8
"2010-01-12 00:10:00",1584294,6.255,191.1,5.735,1.137,9.64,102.2041,4.924,6.135,31.63,0,109.9,13.45,5.69,153.1
"2010-01-12 00:10:30",1584295,5.55,184.6,5.923,1.219,7.377,102.2041,4.924,6.004,31.46,0,109.9,13.45,5.69,146.6
"2010-01-12 00:11:00",1584296,5.455,184.7,6.254,1.218,7.381,102.2041,4.924,5.977,31.48,0,109.9,13.45,5.69,146.7
"2010-01-12 00:11:30",1584297,6.136,188.4,6.098,1.242,9.1,102.2041,4.924,6.104,31.65,0,109.9,13.45,5.69,150.4
"2010-01-12 00:12:00",1584298,5.902,188,6.496,1.172,9.03,102.2041,4.924,6.172,31.74,0,109.9,13.45,5.69,150.0
"2010-01-12 00:12:30",1584299,4.781,183.8,5.327,1.019,6.923,102.2041,4.924,5.976,31.45,0,109.9,13.45,5.69,145.8
"2010-01-12 00:13:00",1584300,6.207,191.1,5.764,1.107,9.39,102.2038,4.924,6.116,31.61,0,109.9,13.45,5.69,153.1
"2010-01-12 00:13:30",1584301,5.442,188.8,6.911,1.281,8.17,102.2041,4.924,6.058,31.44,0,109.9,13.45,5.69,150.8
"2010-01-12 00:14:00",1584302,4.317,184.3,4.607,0.767,6.573,102.2041,4.924,6.025,31.26,0,109.9,13.46,5.69,146.3
"2010-01-12 00:15:30",1584303,5.777,192.9,6.464,1.15,9.47,102.2017,4.918,6.081,31.06,0,109.9,13.45,5.69,154.9
"2010-01-12 00:16:00",1584304,5.316,191.5,6.678,1.254,8.83,102.1965,4.905,6.055,31.28,0,109.9,13.45,5.67,153.5
"2010-01-12 00:16:30",1584305,5.491,192,6.939,1.208,9.1,102.1872,4.881,6.033,31.38,0,109.9,13.45,5.65,154.0
"2010-01-12 00:17:00",1584306,5.989,194.1,5.578,1.111,9.55,102.1821,4.868,6.128,31.51,0,109.9,13.45,5.64,156.1
"2010-01-12 00:17:30",1584307,5.369,190.2,6.514,1.255,8.28,102.1787,4.86,6.002,31.34,0,109.9,13.45,5.63,152.2
"2010-01-12 00:18:00",1584308,5.166,189.6,6.297,1.256,7.917,102.1762,4.853,5.97,31.25,0,109.9,13.45,5.62,151.6
"2010-01-12 00:18:30",1584309,5.403,191.3,6.306,1.244,8.91,102.1753,4.851,6.138,31.54,0,109.9,13.45,5.62,153.3
"2010-01-12 00:19:00",1584310,4.649,188.1,5.703,1.143,8,102.1728,4.844,6.122,31.46,0,109.9,13.45,5.61,150.1
"2010-01-12 00:19:30",1584311,5.752,190.5,6.416,1.238,9.54,102.1705,4.839,6.136,31.59,0,109.9,13.45,5.61,152.5
"2010-01-12 00:20:00",1584312,6.008,191.2,6.089,1.229,9.58,102.1743,4.848,6.131,31.65,0,109.9,13.46,5.62,153.2
"2010-01-12 00:20:30",1584313,4.69,185.4,4.886,0.971,6.961,102.1757,4.852,6.061,31.79,0,109.9,13.46,5.62,147.4
"2010-01-12 00:21:00",1584314,4.531,183.8,4.97,0.757,6.069,102.1772,4.856,6.019,31.7,0,109.9,13.45,5.62,145.8
"2010-01-12 00:21:30",1584315,5.091,187.2,7.187,1.26,7.564,102.1821,4.868,5.944,31.67,0,109.9,13.46,5.64,149.2
"2010-01-12 00:22:00",1584316,5.165,183.8,5.862,1.105,6.636,102.1847,4.875,6.029,31.9,0,109.9,13.46,5.64,145.8
"2010-01-12 00:22:30",1584317,6.454,191.8,5.055,1.204,9.94,102.189,4.886,6.082,32.09,0,109.9,13.46,5.65,153.8
"2010-01-12 00:23:00",1584318,7.074,188.4,4.724,0.903,10.03,102.1933,4.897,6.184,32.6,0,109.9,13.46,5.67,150.4
"2010-01-12 00:23:30",1584319,6.101,188,6.296,1.268,9.12,102.1977,4.908,6.087,33.25,0,109.9,13.46,5.68,150.0
"2010-01-12 00:24:00",1584320,6.217,185.6,6.515,1.376,7.712,102.2,4.914,6.006,32.55,0,109.9,13.46,5.68,147.6
"2010-01-12 00:24:30",1584321,5.706,181.5,5.853,1.067,7.34,102.202,4.919,6.013,33.44,0,109.9,13.46,5.69,143.5
"2010-01-12 00:25:00",1584322,5.496,179.3,5.296,1.052,6.716,102.1995,4.913,5.98,33.77,0,109.9,13.46,5.68,141.3
"2010-01-12 00:25:30",1584323,6.741,185.6,6.072,1.073,9.51,102.1842,4.874,6.109,33.87,0,109.9,13.47,5.64,147.6
"2010-01-12 00:26:00",1584324,7.214,186.3,4.828,0.371,10.5,102.1712,4.84,6.137,34.14,0,109.9,13.47,5.61,148.3
"2010-01-12 00:26:30",1584325,6.061,181.7,6.765,1.273,7.993,102.171,4.84,5.947,34.14,0,109.9,13.47,5.61,143.7
"2010-01-12 00:27:00",1584326,6.551,184.1,6.075,1.185,8.42,102.171,4.84,5.956,34.12,0,109.9,13.47,5.61,146.1
"2010-01-12 00:27:30",1584327,5.522,179.9,6.377,1.178,7.259,102.171,4.84,5.985,34.05,0,109.8,13.47,5.61,141.9
"2010-01-12 00:28:00",1584328,5.879,180.6,6.675,1.307,7.421,102.1667,4.829,5.9,33.89,0,109.8,13.47,5.60,142.6
"2010-01-12 00:28:30",1584329,6.406,183.9,6.175,1.191,8.89,102.1546,4.798,6.005,34.05,0,109.8,13.47,5.57,145.9
"2010-01-12 00:29:00",1584330,6.529,186.1,5.587,1.218,9.65,102.1421,4.766,6.096,34.23,0,109.8,13.47,5.53,148.1
"2010-01-12 00:29:30",1584331,7.068,189.3,4.382,0.836,9.97,102.137,4.753,6.069,33.96,0,109.8,13.47,5.52,151.3
"2010-01-12 00:30:00",1584332,5.721,181.5,6.628,1.201,7.222,102.137,4.753,5.976,34.03,0,109.8,13.47,5.52,143.5
"2010-01-12 00:30:30",1584333,5.32,178.9,4.934,1.087,5.766,102.1367,4.752,5.757,33.81,0,109.8,13.47,5.52,140.9
"2010-01-12 00:31:00",1584334,5.77,182.7,6.126,1.236,7.148,102.1291,4.733,5.863,34.07,0,109.8,13.47,5.50,144.7
"2010-01-12 00:31:30",1584335,5.951,182.1,6.369,1.255,7.91,102.1116,4.688,5.922,34.24,0,109.8,13.47,5.46,144.1
"2010-01-12 00:32:00",1584336,6.086,183,5.873,1.186,8.95,102.1031,4.666,5.958,34.38,0,109.8,13.47,5.43,145.0
"2010-01-12 00:32:30",1584337,6.603,185.3,3.795,1.02,10.01,102.1031,4.666,6.033,34.42,0,109.8,13.47,5.43,147.3
"2010-01-12 00:33:00",1584338,6.14,182.7,6.204,1.227,9.03,102.1031,4.666,5.863,34.36,0,109.8,13.47,5.43,144.7
"2010-01-12 00:33:30",1584339,4.568,173.8,3.235,0.641,5.838,102.1011,4.661,5.775,34.28,0,109.8,13.47,5.43,135.8
"2010-01-12 00:34:00",1584340,5.361,177.1,6.156,1.253,6.666,102.0884,4.629,5.725,34.29,0,109.8,13.47,5.40,139.1
"2010-01-12 00:34:30",1584341,5.661,178.2,6.532,1.248,8.17,102.076,4.597,5.769,34.41,0,109.8,13.47,5.37,140.2
"2010-01-12 00:35:00",1584342,5.822,178.2,6.609,1.301,8.58,102.0695,4.581,5.905,34.7,0,109.8,13.47,5.35,140.2
"2010-01-12 00:35:30",1584343,6.301,182,4.181,0.998,9.65,102.0692,4.58,5.921,34.68,0,109.8,13.47,5.35,144.0
"2010-01-12 00:36:00",1584344,5.667,176.1,7.569,1.247,8.02,102.0689,4.579,5.749,34.57,0,109.8,13.47,5.35,138.1
"2010-01-12 00:36:30",1584345,5.702,176,6.252,1.218,7.889,102.0621,4.562,5.771,34.67,0,109.8,13.47,5.33,138.0
"2010-01-12 00:37:00",1584346,4.799,170,4.351,0.862,6.116,102.0406,4.507,5.751,34.78,0,109.8,13.47,5.27,132.0
"2010-01-12 00:37:30",1584347,5.389,171.7,5.489,1.117,6.494,102.0353,4.493,5.633,34.88,0,109.8,13.47,5.26,133.7
"2010-01-12 00:38:00",1584348,6.237,176.8,6.244,1.244,8.89,102.0353,4.493,5.802,35.17,0,109.8,13.47,5.26,138.8
"2010-01-12 00:38:30",1584349,6.906,179.9,4.085,0.583,10.52,102.0353,4.493,5.865,35.29,0,109.8,13.48,5.26,141.9
"2010-01-12 00:39:00",1584350,6.361,177.2,5.162,1.174,9.23,102.033,4.487,5.804,35.29,0,109.8,13.48,5.26,139.2
"2010-01-12 00:39:30",1584351,4.813,168.9,4.346,0.749,6.266,102.024,4.464,5.66,35.28,0,109.8,13.48,5.23,130.9
"2010-01-12 00:40:00",1584352,5.27,170.7,5.899,1.15,6.641,102.0073,4.422,5.563,35.21,0,109.8,13.48,5.19,132.7
"2010-01-12 00:40:30",1584353,5.553,174,5.858,1.224,7.751,102.0031,4.411,5.619,35.31,0,109.8,13.48,5.18,136.0
"2010-01-12 00:41:00",1584354,5.541,173.2,6.9,1.293,7.509,102.0031,4.411,5.555,35.28,0,109.8,13.48,5.18,135.2
"2010-01-12 00:41:30",1584355,6.421,177.1,4.952,0.97,9.47,102.0037,4.413,5.752,35.61,0,109.8,13.48,5.18,139.1
"2010-01-12 00:42:00",1584356,6.031,175.7,5.815,1.212,9.22,102.0074,4.422,5.711,35.56,0,109.8,13.48,5.19,137.7
"2010-01-12 00:42:30",1584357,5.923,175.7,5.663,1.207,9.55,101.9984,4.399,5.749,35.64,0,109.8,13.49,5.17,137.7
"2010-01-12 00:43:00",1584358,5.321,171.3,6.012,1.206,6.827,101.9942,4.388,5.507,35.48,0,109.8,13.49,5.16,133.3
"2010-01-12 00:43:30",1584359,5.412,172.4,6.09,1.205,7.188,101.9812,4.355,5.615,35.6,0,109.8,13.49,5.12,134.4
"2010-01-12 00:44:00",1584360,5.575,172.5,6.525,1.257,7.327,101.9792,4.35,5.543,35.59,0,109.8,13.49,5.12,134.5
"2010-01-12 00:44:30",1584361,6.483,178.4,4.18,0.898,9.85,101.979,4.349,5.706,35.78,0,109.8,13.48,5.12,140.4
"2010-01-12 00:45:00",1584362,6.095,176.6,5.875,1.095,9.41,101.9807,4.354,5.656,35.7,0,109.8,13.48,5.12,138.6
"2010-01-12 00:45:30",1584363,5.638,175.7,6.274,1.193,8.77,101.9807,4.354,5.597,35.73,0,109.8,13.48,5.12,137.7
"2010-01-12 00:46:00",1584364,4.972,171.7,5.929,1.131,7.261,101.9807,4.354,5.582,35.78,0,109.8,13.48,5.12,133.7
"2010-01-12 00:46:30",1584365,4.821,169.8,4.812,0.935,6.031,101.9757,4.341,5.375,35.57,0,109.8,13.49,5.11,131.8
"2010-01-12 00:47:00",1584366,5.423,174.3,6.717,1.24,7.777,101.9641,4.312,5.603,35.81,0,109.8,13.49,5.08,136.3
"2010-01-12 00:47:30",1584367,6.034,176.5,6.518,1.246,8.71,101.9636,4.31,5.563,35.87,0,109.8,13.49,5.08,138.5
"2010-01-12 00:48:00",1584368,5.783,177,6.296,1.261,8.8,101.9628,4.308,5.627,35.96,0,109.8,13.49,5.08,139.0
"2010-01-12 00:48:30",1584369,6.158,178.2,5.934,1.107,8.8,101.9583,4.297,5.558,35.93,0,109.8,13.49,5.06,140.2
"2010-01-12 00:49:00",1584370,5.099,174.5,5.851,1.176,7.297,101.9592,4.299,5.472,35.85,0,109.8,13.49,5.07,136.5
"2010-01-12 00:49:30",1584371,4.946,174.9,5.902,1.028,7.407,101.9603,4.302,5.549,35.98,0,109.8,13.49,5.07,136.9
"2010-01-12 00:50:00",1584372,5.757,176.8,6.582,1.272,7.648,101.9612,4.304,5.41,35.93,0,109.8,13.49,5.07,138.8
"2010-01-12 00:50:30",1584373,5.906,177.9,6.258,1.232,8.27,101.9603,4.302,5.531,36.08,0,109.8,13.49,5.07,139.9
"2010-01-12 00:51:00",1584374,5.978,178.3,6.165,1.192,8.5,101.9609,4.303,5.511,36.14,0,109.8,13.48,5.07,140.3
"2010-01-12 00:51:30",1584375,6.088,179.2,5.582,1.169,8.91,101.962,4.306,5.53,36.19,0,109.8,13.48,5.07,141.2
"2010-01-12 00:52:00",1584376,6.011,178.8,5.998,1.215,8.52,101.9638,4.311,5.514,36.3,0,109.8,13.48,5.08,140.8
"2010-01-12 00:52:30",1584377,5.46,176.5,6.612,1.226,7.633,101.9641,4.311,5.406,36.51,0,109.8,13.48,5.08,138.5
"2010-01-12 00:53:00",1584378,5.943,178.1,6.103,1.263,7.783,101.9652,4.314,5.479,36.74,0,109.8,13.48,5.08,140.1
"2010-01-12 00:53:30",1584379,5.776,177.2,6.703,1.259,7.815,101.9652,4.314,5.476,37.05,0,109.8,13.48,5.08,139.2
"2010-01-12 00:54:00",1584380,6.282,180.1,6.169,1.202,8.61,101.959,4.299,5.443,37.08,0,109.8,13.49,5.07,142.1
"2010-01-12 00:54:30",1584381,6.191,180.6,6.351,1.208,8.72,101.9497,4.275,5.533,37.02,0,109.8,13.49,5.04,142.6
"2010-01-12 00:55:00",1584382,6.288,180.4,6.445,1.163,8.85,101.9384,4.246,5.497,36.95,0,109.8,13.49,5.01,142.4
"2010-01-12 00:55:30",1584383,5.593,177.8,5.911,1.187,7.678,101.935,4.237,5.4,36.9,0,109.8,13.5,5.00,139.8
"2010-01-12 00:56:00",1584384,6.411,180.2,6.156,1.171,8.78,101.9344,4.236,5.505,37.12,0,109.8,13.5,5.00,142.2
"2010-01-12 00:56:30",1584385,6.477,180,5.747,1.174,8.39,101.9342,4.235,5.414,37.49,0,109.8,13.5,5.00,142.0
"2010-01-12 00:57:00",1584386,4.78,170.7,0.382,0.233,5.355,101.9342,4.235,5.262,37.79,0,109.8,13.5,5.00,132.7
"2010-01-12 00:57:30",1584387,6.106,179.5,6.3,1.238,8.13,101.9342,4.235,5.508,38.11,0,109.8,13.5,5.00,141.5
"2010-01-12 00:58:00",1584388,6.252,180.9,6.372,1.214,8.43,101.9342,4.235,5.442,37.89,0,109.8,13.5,5.00,142.9
"2010-01-12 00:58:30",1584389,6.201,180.4,6.445,1.254,8.33,101.9342,4.235,5.441,37.9,0,109.8,13.5,5.00,142.4
"2010-01-12 00:59:00",1584390,6.431,181,6.45,1.245,8.27,101.9342,4.235,5.456,37.69,0,109.8,13.5,5.00,143.0
"2010-01-12 00:59:30",1584391,5.636,177.4,5.271,0.984,6.419,101.9328,4.231,5.382,37.71,0,109.8,13.5,5.00,139.4
"2010-01-12 01:00:00",1584392,5.272,175.9,4.484,0.788,5.998,101.9271,4.217,5.362,37.7,0,109.8,13.5,4.98,137.9
"2010-01-12 01:00:30",1584393,6.852,182.6,5.165,1.015,8.94,101.9195,4.198,5.399,38.16,0,109.8,13.5,4.96,144.6
"2010-01-12 01:01:00",1584394,6.655,181.8,5.49,1.104,8.43,101.9164,4.19,5.348,38.4,0,109.8,13.5,4.96,143.8
"2010-01-12 01:01:30",1584395,7.121,183.3,4.867,0.787,9.84,101.909,4.171,5.453,38.8,0,109.8,13.5,4.94,145.3
"2010-01-12 01:02:00",1584396,6.687,181.7,5.667,1.09,8.91,101.9008,4.15,5.416,38.97,0,109.8,13.5,4.92,143.7
"2010-01-12 01:02:30",1584397,6.82,181.6,6.413,1.155,8.35,101.9002,4.148,5.337,38.92,0,109.8,13.5,4.91,143.6
"2010-01-12 01:03:00",1584398,5.758,176.6,4.747,0.961,6.129,101.9002,4.148,5.273,38.77,0,109.8,13.5,4.91,138.6
"2010-01-12 01:03:30",1584399,6.617,181.3,6.452,1.188,8.17,101.9002,4.148,5.346,38.85,0,109.8,13.5,4.91,143.3
"2010-01-12 01:04:00",1584400,6.423,180.2,6.377,1.262,8.09,101.8963,4.138,5.402,39.21,0,109.8,13.5,4.90,142.2
"2010-01-12 01:04:30",1584401,7.363,185.9,4.567,0.961,9.99,101.8878,4.117,5.453,39.03,0,109.8,13.5,4.88,147.9
"2010-01-12 01:05:00",1584402,7.11,183,6.118,1.133,8.96,101.883,4.104,5.372,38.51,0,109.8,13.5,4.87,145.0
"2010-01-12 01:05:30",1584403,6.804,182.4,5.818,1.13,8.83,101.8722,4.077,5.375,38.89,0,109.8,13.5,4.84,144.4
"2010-01-12 01:06:00",1584404,5.912,178.2,6.427,1.229,6.912,101.8669,4.063,5.235,39.39,0,109.8,13.5,4.83,140.2
"2010-01-12 01:06:30",1584405,5.844,178.1,6.432,1.23,6.883,101.8663,4.062,5.256,39.86,0,109.8,13.5,4.83,140.1
"2010-01-12 01:07:00",1584406,6.571,182.8,6.371,1.238,8.15,101.8663,4.062,5.27,39.66,0,109.8,13.5,4.83,144.8
"2010-01-12 01:07:30",1584407,7.017,185.5,5.291,1.007,9.55,101.8663,4.062,5.433,39.72,0,109.8,13.5,4.83,147.5
"2010-01-12 01:08:00",1584408,6.856,184.9,4.536,0.997,9.63,101.8663,4.062,5.406,40.06,0,109.8,13.5,4.83,146.9
"2010-01-12 01:08:30",1584409,6.24,181.8,5.607,1.139,8.21,101.8672,4.064,5.22,40.41,0,109.8,13.5,4.83,143.8
"2010-01-12 01:09:00",1584410,5.025,177,5.671,1.036,6.084,101.8615,4.05,5.219,40.67,0,109.8,13.5,4.82,139.0
"2010-01-12 01:09:30",1584411,5.278,177.7,4.165,0.841,5.377,101.8409,3.997,5.072,40.29,0,109.8,13.5,4.76,139.7
"2010-01-12 01:10:00",1584412,4.946,176.3,4.198,0.696,5.811,101.8332,3.977,5.157,40.18,0,109.8,13.5,4.74,138.3
"2010-01-12 01:10:30",1584413,6.545,184.1,3.428,0.687,9.95,101.8327,3.976,5.352,40.87,0,109.8,13.5,4.74,146.1
"2010-01-12 01:11:00",1584414,6.436,183.5,3.37,0.659,9.74,101.8329,3.977,5.356,41.07,0,109.8,13.5,4.74,145.5
"2010-01-12 01:11:30",1584415,5.623,180.3,5.856,1.191,8.57,101.8262,3.959,5.263,41.12,0,109.8,13.5,4.73,142.3
"2010-01-12 01:12:00",1584416,4.471,173.6,4.93,1.071,5.469,101.8064,3.909,5.09,41.01,0,109.8,13.5,4.67,135.6
"2010-01-12 01:12:30",1584417,4.836,176.7,5.843,1.118,6.135,101.8025,3.899,5.064,41.04,0,109.8,13.51,4.66,138.7
"2010-01-12 01:13:00",1584418,4.974,178.1,6.675,1.225,6.787,101.8042,3.903,5.078,41.19,0,109.8,13.51,4.67,140.1
"2010-01-12 01:13:30",1584419,6.362,184.9,4.082,0.674,9.54,101.7954,3.881,5.268,41.5,0,109.8,13.51,4.65,146.9
"2010-01-12 01:14:00",1584420,6.155,185.6,3.286,0.925,9.45,101.7737,3.825,5.226,41.47,0,109.8,13.51,4.59,147.6
"2010-01-12 01:14:30",1584421,6.144,186,5.016,1.015,8.89,101.7731,3.824,5.144,41.47,0,109.8,13.51,4.59,148.0
"2010-01-12 01:15:00",1584422,4.846,179.1,5.321,1.005,5.544,101.7706,3.818,5.025,41.45,0,109.8,13.51,4.58,141.1
"2010-01-12 01:15:30",1584423,5.258,182,5.49,1.137,5.545,101.7517,3.769,4.887,41.33,0,109.8,13.51,4.53,144.0
"2010-01-12 01:16:00",1584424,5.161,183.8,6.571,1.152,6.078,101.7438,3.749,4.94,41.41,0,109.8,13.51,4.51,145.8
"2010-01-12 01:16:30",1584425,6.448,192,5.986,1.054,8.53,101.7493,3.763,5.096,41.58,0,109.8,13.51,4.53,154.0
"2010-01-12 01:17:00",1584426,6.17,197,4.937,0.974,10.13,101.7496,3.764,5.103,41.19,0,109.8,13.51,4.53,159.0
"2010-01-12 01:17:30",1584427,6.201,199.1,4.723,0.638,10.53,101.7431,3.747,5.075,39.78,0,109.8,13.51,4.51,161.1
"2010-01-12 01:18:00",1584428,5.635,196,5.834,1.158,8.91,101.7247,3.7,4.973,39.18,0,109.8,13.51,4.47,158.0
"2010-01-12 01:18:30",1584429,3.866,188.4,0.545,0.439,5.326,101.7179,3.683,4.759,38.81,0,109.8,13.51,4.45,150.4
"2010-01-12 01:19:00",1584430,3.76,189.1,3.205,0.451,5.9,101.7199,3.688,4.857,38.33,0,109.8,13.55,4.45,151.1
"2010-01-12 01:19:30",1584431,5.489,198.4,5.506,1.127,9.54,101.7196,3.687,4.969,38.11,0,109.8,13.51,4.45,160.4
"2010-01-12 01:20:00",1584432,5.28,197,6.113,1.236,8.6,101.7219,3.693,4.963,38.19,0,109.8,13.52,4.46,159.0
"2010-01-12 01:20:30",1584433,5.439,197.6,5.349,1.139,9.37,101.7219,3.693,4.989,38.33,0,109.8,13.52,4.46,159.6
"2010-01-12 01:21:00",1584434,5.465,197.8,5.616,1.118,9.38,101.7222,3.694,4.933,38.46,0,109.8,13.51,4.46,159.8
"2010-01-12 01:21:30",1584435,3.737,188.9,2.346,0.5,5.616,101.7225,3.695,4.736,38.21,0,109.8,13.52,4.46,150.9
"2010-01-12 01:22:00",1584436,3.537,188.9,0.558,0.062,5.259,101.7237,3.698,4.708,38.42,0,109.8,13.55,4.46,150.9
"2010-01-12 01:22:30",1584437,4.846,194.3,6.23,1.262,7.931,101.7245,3.7,4.875,38.74,0,109.8,13.51,4.46,156.3
"2010-01-12 01:23:00",1584438,4.862,192.5,6.275,1.296,8.49,101.7263,3.704,4.954,39.14,0,109.8,13.51,4.47,154.5
"2010-01-12 01:23:30",1584439,5.197,193.5,6.243,1.172,8.73,101.7248,3.701,4.934,38.89,0,109.8,13.51,4.47,155.5
"2010-01-12 01:24:00",1584440,5.782,193.6,5.373,1.041,9.33,101.7271,3.707,4.901,38.81,0,109.8,13.51,4.47,155.6
"2010-01-12 01:24:30",1584441,4.987,189.2,6.481,1.298,7.738,101.7271,3.707,4.852,38.67,0,109.8,13.51,4.47,151.2
"2010-01-12 01:25:00",1584442,3.675,181.7,1.38,0.085,4.79,101.7297,3.713,4.704,38.77,0,109.8,13.54,4.48,143.7
"2010-01-12 01:25:30",1584443,4.967,186.1,5.759,1.237,7.246,101.7291,3.712,4.918,40.87,0,109.8,13.51,4.48,148.1
"2010-01-12 01:26:00",1584444,5.36,189.6,5.483,1.063,8.55,101.7303,3.715,4.93,41.78,0,109.8,13.51,4.48,151.6
"2010-01-12 01:26:30",1584445,4.347,180.2,6.97,1.36,6.052,101.7303,3.715,4.772,41.97,0,109.8,13.51,4.48,142.2
"2010-01-12 01:27:00",1584446,4.539,182.7,7.029,1.276,7.12,101.7309,3.716,4.981,42.49,0,109.7,13.52,4.48,144.7
"2010-01-12 01:27:30",1584447,4.565,190.6,6.851,1.247,7.578,101.7309,3.716,4.884,42.12,0,109.8,13.52,4.48,152.6
"2010-01-12 01:28:00",1584448,3.629,187.6,3.29,0.858,5.007,101.7312,3.717,4.706,41.28,0,109.8,13.52,4.48,149.6
"2010-01-12 01:28:30",1584449,4.184,191.5,6.53,1.196,6.84,101.7312,3.717,4.916,41.09,0,109.8,13.52,4.48,153.5
"2010-01-12 01:29:00",1584450,5.425,197.1,6.018,1.002,8.98,101.7309,3.716,4.91,40.79,0,109.8,13.53,4.48,159.1
"2010-01-12 01:29:30",1584451,4.617,194.7,6.373,1.245,7.811,101.7272,3.707,5.005,40.77,0,109.8,13.53,4.47,156.7
"2010-01-12 01:30:00",1584452,5.297,196.6,5.763,1.145,7.801,101.7193,3.686,4.804,40.57,0,109.8,13.53,4.45,158.6
"2010-01-12 01:30:30",1584453,4.579,196.9,5.996,1.252,8.11,101.7046,3.649,4.892,40.07,0,109.8,13.53,4.41,158.9
"2010-01-12 01:31:00",1584454,3.899,190.8,4.766,1.063,5.777,101.6978,3.632,4.735,39.77,0,109.8,13.53,4.40,152.8
"2010-01-12 01:31:30",1584455,3.995,192,5.588,1.084,6.503,101.6972,3.63,4.749,40.49,0,109.8,13.53,4.39,154.0
"2010-01-12 01:32:00",1584456,5.245,199.5,5.919,1.109,8.92,101.6972,3.63,4.916,40.79,0,109.7,13.53,4.39,161.5
"2010-01-12 01:32:30",1584457,4.785,199.4,6.021,1.193,8.25,101.6972,3.63,4.907,41,0,109.8,13.53,4.39,161.4
"2010-01-12 01:33:00",1584458,4.222,196.2,5.846,1.142,6.767,101.6972,3.63,4.703,40.85,0,109.8,13.53,4.39,158.2
"2010-01-12 01:33:30",1584459,4.406,199.4,6.221,1.189,7.721,101.6972,3.63,4.896,40.26,0,109.7,13.53,4.39,161.4
"2010-01-12 01:34:00",1584460,3.684,194,4.339,0.907,5.709,101.6972,3.63,4.707,40.25,0,109.7,13.53,4.39,156.0
"2010-01-12 01:34:30",1584461,5.206,202.2,5.41,0.943,9.43,101.6972,3.63,4.829,39.91,0,109.7,13.53,4.39,164.2
"2010-01-12 01:35:00",1584462,4.454,199.4,6.143,1.246,8.38,101.6964,3.628,4.789,39.18,0,109.7,13.53,4.39,161.4
"2010-01-12 01:35:30",1584463,4.707,201.4,5.722,1.201,8.79,101.6918,3.616,4.916,39.13,0,109.7,13.53,4.38,163.4
"2010-01-12 01:36:00",1584464,3.583,193.5,5.9,1.049,7.081,101.6856,3.601,4.726,38.81,0,109.7,13.53,4.37,155.5
"2010-01-12 01:36:30",1584465,3.745,193.9,6.28,1.153,7.017,101.6814,3.59,4.635,38.26,0,109.7,13.53,4.35,155.9
"2010-01-12 01:37:00",1584466,4.013,194.4,6.665,1.261,7.971,101.6802,3.587,4.769,38.15,0,109.7,13.53,4.35,156.4
"2010-01-12 01:37:30",1584467,3.68,191.6,5.375,1.156,7.299,101.6771,3.579,4.7,37.94,0,109.7,13.53,4.34,153.6
"2010-01-12 01:38:00",1584468,4.383,199.1,7.027,1.295,8.55,101.676,3.576,4.713,37.9,0,109.7,13.53,4.34,161.1
"2010-01-12 01:38:30",1584469,4.696,204,5.714,1.163,9.14,101.6766,3.577,4.885,38.28,0,109.7,13.53,4.34,166.0
"2010-01-12 01:39:00",1584470,4.667,202.9,6.044,1.118,8.86,101.6743,3.572,4.776,38.25,0,109.7,13.53,4.34,164.9
"2010-01-12 01:39:30",1584471,3.663,198.4,6.389,1.197,7.249,101.6743,3.572,4.718,38.23,0,109.7,13.53,4.34,160.4
"2010-01-12 01:40:00",1584472,2.733,193.5,0.608,0.042,4.994,101.6732,3.569,4.595,38.04,0,109.7,13.55,4.33,155.5
"2010-01-12 01:40:30",1584473,2.922,194.4,3.225,0.489,5.68,101.6723,3.567,4.748,38.22,0,109.7,13.56,4.33,156.4
"2010-01-12 01:41:00",1584474,4.788,201.7,5.727,1.087,9.36,101.6771,3.579,4.817,38.67,0,109.7,13.53,4.34,163.7
"2010-01-12 01:41:30",1584475,4.375,199.5,6.394,1.166,8.87,101.6791,3.584,4.78,38.81,0,109.7,13.53,4.35,161.5
"2010-01-12 01:42:00",1584476,4.501,200.6,5.955,1.12,9.39,101.6785,3.582,4.86,38.77,0,109.7,13.53,4.35,162.6
"2010-01-12 01:42:30",1584477,4.495,200.1,5.907,1.206,8.3,101.6797,3.585,4.816,38.82,0,109.7,13.53,4.35,162.1
"2010-01-12 01:43:00",1584478,2.678,194.1,1.1,0.054,4.701,101.6802,3.587,4.613,38.87,0,109.7,13.56,4.35,156.1
"2010-01-12 01:43:30",1584479,2.588,194.1,0.748,0.09,4.592,101.6817,3.59,4.606,39.18,0,109.7,13.57,4.36,156.1
"2010-01-12 01:44:00",1584480,3.45,200.7,6.608,1.18,7.16,101.6794,3.585,4.833,40.05,0,109.7,13.53,4.35,162.7
"2010-01-12 01:44:30",1584481,3.636,200.9,6.211,1.229,7.812,101.6785,3.582,4.829,40.82,0,109.7,13.54,4.35,162.9
"2010-01-12 01:45:00",1584482,3.53,201.2,6.783,1.257,8.2,101.6808,3.588,4.823,41.16,0,109.7,13.54,4.35,163.2
"2010-01-12 01:45:30",1584483,3.761,204.5,6.381,1.191,7.709,101.6783,3.582,4.82,41.29,0,109.7,13.54,4.35,166.5
"2010-01-12 01:46:00",1584484,2.555,201.6,6.118,1.029,5.689,101.6811,3.589,4.822,41.51,0,109.7,13.53,4.35,163.6
"2010-01-12 01:46:30",1584485,2.047,198.1,1.424,0.115,3.816,101.6797,3.585,4.613,41.46,0,109.7,13.57,4.35,160.1
"2010-01-12 01:47:00",1584486,2.011,199.1,1.558,0.061,4.017,101.674,3.571,4.609,41.52,0,109.7,13.57,4.34,161.1
"2010-01-12 01:47:30",1584487,3.475,206,6.69,1.269,6.705,101.6658,3.55,4.764,41.73,0,109.7,13.54,4.31,168.0
"2010-01-12 01:48:00",1584488,3.861,210.9,5.884,1.194,8.79,101.6638,3.545,4.873,41.79,0,109.7,13.54,4.31,172.9
"2010-01-12 01:48:30",1584489,3.597,209.8,6.145,1.262,8.06,101.6633,3.543,4.814,41.78,0,109.7,13.54,4.31,171.8
"2010-01-12 01:49:00",1584490,3.881,209.7,6.535,1.105,8.18,101.6633,3.543,4.8,41.92,0,109.7,13.54,4.31,171.7